[[{"header":{"parameterUnit":"m.s-1","parameterCategory":1,"la1":30.2991,"la2":30.254,"lo1":-89.0895,"lo2":-89.0444,"dy":0.0017,"dx":0.0017,"nx":28,"ny":28,"refTime":"2026-03-05T09:00:00:Z","depth":0,"parameterNumber":2,"parameterNumberName":"U-component_of_WINDS"},"data":[0,0,0,0,0,0,0,0,0,0,0,0,0,0,0,0,0,0,0,0,0,0,0,0,0,0,0,0,0,0,0,0,0,0,0,0,0,0,0,0,0,0,0,0,0,0,0,0,0,0,0,0,0,0,0,0,0,0,-5.4459,-5.446,0,-5.4549,-5.455,-5.4551,-5.4492,-5.4489,-5.4487,-5.4484,-5.4575,-5.458,-5.4584,0,0,0,0,0,0,0,0,0,0,0,0,0,-5.4237,-5.4241,-5.4459,-5.446,-5.4461,-5.4549,-5.455,-5.4551,-5.4493,-5.4489,-5.4486,-5.4483,-5.4573,-5.4579,-5.4585,0,0,0,0,0,0,0,0,0,0,0,0,0,-5.4331,-5.4243,-5.4459,-5.4443,-5.4442,-5.4548,-5.455,-5.4551,-5.4493,-5.4489,-5.4485,-5.4481,-5.4571,-5.4578,-5.4586,-5.4712,0,0,-5.4608,-5.4611,0,0,0,0,0,0,0,0,-5.4326,-5.4339,-5.4444,-5.4444,-5.4443,-5.4505,-5.4505,-5.4605,-5.4494,-5.4474,-5.4484,-5.4479,-5.4555,-5.4563,-5.4589,-5.4717,-5.4721,-5.4609,-5.4613,-5.4617,-5.4619,0,0,0,0,0,0,0,-5.4319,-5.4335,-5.4494,-5.4445,-5.4445,-5.4431,-5.444,-5.4524,-5.4536,-5.4475,-5.4471,-5.4483,-5.4554,-5.4582,-5.4591,-5.4722,-5.4609,-5.4615,-5.462,-5.4623,-5.4959,-5.4963,0,0,0,0,0,0,-5.4314,-5.433,-5.4491,-5.4497,-5.4373,-5.4438,-5.4448,-5.4489,-5.4535,-5.4538,-5.4486,-5.448,-5.4571,-5.4582,-5.4594,-5.4744,-5.4617,-5.4623,-5.4628,-5.4955,-5.496,-5.4965,0,0,0,0,0,0,-5.4309,-5.4329,-5.4488,-5.4412,-5.4432,-5.4446,-5.4493,-5.4493,-5.4521,-5.4543,-5.4545,-5.4512,-5.4569,-5.4583,-5.4684,-5.4747,-5.4627,-5.4634,-5.4949,-5.4956,-5.4963,-5.5048,0,0,0,0,0,0,-5.4303,-5.4328,-5.4376,-5.4414,-5.4436,-5.4576,-5.4497,-5.4498,-5.4534,-5.4527,-5.4568,-5.4571,-5.4566,-5.4673,-5.4691,-5.4755,-5.4639,-5.4944,-5.4952,-5.496,-5.5039,-5.5056,-5.5071,0,0,0,0,0,-5.4296,-5.4396,-5.4378,-5.4398,-5.4496,-5.458,-5.4592,-5.4585,-5.454,-5.4588,-5.4602,-5.457,-5.4738,-5.4684,-5.4704,-5.477,-5.494,-5.495,-5.496,-5.5032,-5.5053,-5.5071,0,0,0,0,0,0,-5.4363,-5.44,-5.4381,-5.4497,-5.4536,-5.457,-5.463,-5.4608,-5.466,-5.4651,-5.464,-5.465,-5.4755,-5.4773,-5.4712,-5.4896,-5.4831,-5.4846,-5.4879,-5.49,-5.4915,-5.4907,-5.4645,0,0,0,0,0,-5.4392,-5.4457,-5.4486,-5.4585,-5.4606,-5.4615,-5.4651,-5.4643,-5.4683,-5.4699,-5.472,-5.476,-5.4822,-5.4862,-5.492,-5.5043,-5.5051,-5.5099,-5.5115,-5.5128,-5.514,-5.5206,-5.5228,-5.4998,-5.4998,-5.4998,0,0,-5.445,-5.4479,-5.452,-5.4599,-5.4628,-5.4696,-5.4629,-5.4703,-5.4753,-5.471,-5.4805,-5.4824,-5.4867,-5.4979,-5.503,-5.4998,-5.5206,-5.5141,-5.5151,-5.5156,-5.5219,-5.524,-5.526,-5.5005,-5.5004,-5.5003,0,0,-5.4592,-5.4621,-5.4706,-5.4738,-5.4783,-5.479,-5.4811,-5.4849,-5.4859,-5.4956,-5.4925,-5.4985,-5.5091,-5.5124,-5.5154,-5.5312,-5.5283,-5.5332,-5.5414,-5.5478,-5.5496,-5.5512,-5.5567,-5.5587,-5.5344,-5.5344,-5.5344,0,-5.4658,-5.4759,-5.4753,-5.483,-5.4865,-5.4831,-5.4918,-5.4949,-5.5011,-5.5036,-5.5,-5.5134,-5.5161,-5.528,-5.5319,-5.5346,-5.5369,-5.5325,-5.5495,-5.551,-5.5525,-5.5577,-5.5598,-5.5349,-5.5349,-5.5348,-5.5348,0,-5.4839,-5.491,-5.4974,-5.5035,-5.5079,-5.516,-5.5166,-5.5211,-5.52,-5.521,-5.531,-5.5342,-5.5406,-5.5434,-5.5424,-5.5553,-5.5531,-5.5496,-5.543,-5.5552,-5.5601,-5.5621,-5.5357,-5.5355,-5.5353,-5.5352,0,0,-5.5021,-5.5081,-5.5104,-5.5132,-5.5182,-5.5236,-5.5317,-5.5381,-5.5419,-5.5464,-5.5531,-5.5624,-5.5592,-5.5627,-5.562,-5.5678,-5.5799,-5.5635,-5.5635,-5.5662,-5.5942,-5.5966,-5.5989,-5.5783,-5.5787,-5.579,-5.5938,0,-5.5163,-5.5304,-5.5302,-5.5432,-5.5497,-5.5468,-5.5538,-5.5577,-5.559,-5.5647,-5.5661,-5.5726,-5.568,-5.5701,-5.5756,-5.5773,-5.5855,-5.5762,-5.5843,-5.5846,-5.583,-5.6015,-5.6041,-5.6178,-5.5957,-5.596,-5.5962,0,-5.5347,-5.5399,-5.5536,-5.5578,-5.5605,-5.5668,-5.5727,-5.5783,-5.5827,-5.5832,-5.5873,-5.5858,-5.5941,-5.5876,-5.5989,-5.5926,-5.596,-5.5974,-5.5979,-5.5983,-5.5909,-5.6022,-5.6222,-5.6242,-5.5993,-5.599,-5.5988,0,-5.5463,-5.5569,-5.5664,-5.5689,-5.5741,-5.5786,-5.5809,-5.5849,-5.5888,-5.594,-5.5965,-5.6027,-5.6059,-5.6107,-5.611,-5.6062,-5.6224,-5.6159,-5.6229,-5.6229,-5.6261,-5.6258,-5.6467,-5.6289,-5.6288,-5.6288,-5.6287,0,-5.562,-5.5704,-5.5717,-5.5775,-5.587,-5.5868,-5.5961,-5.5981,-5.6017,-5.6079,-5.6059,-5.6117,-5.6118,-5.6178,-5.6181,-5.6274,-5.629,-5.6296,-5.6295,-5.6296,-5.6295,-5.6315,-5.6304,-5.6293,-5.6292,-5.6291,-5.629,0,-5.5764,-5.5776,-5.5878,-5.5919,-5.5932,-5.5999,-5.6035,-5.6091,-5.6104,-5.6182,-5.62,-5.622,-5.629,-5.6298,-5.638,-5.6382,-5.6493,-5.6484,-5.6478,-5.6475,-5.6544,-5.6536,-5.677,-5.68,-5.6605,-5.6607,-5.6609,0,-5.5861,-5.5926,-5.5975,-5.6015,-5.6042,-5.6107,-5.6147,-5.615,-5.6192,-5.6248,-5.6298,-5.6366,-5.642,-5.6533,-5.6554,-5.6617,-5.6607,-5.6685,-5.6615,-5.6614,-5.6605,-5.6599,-5.6605,-5.6696,-5.6698,-5.67,-5.6702,0,-5.6033,-5.6036,-5.6095,-5.6157,-5.6206,-5.6255,-5.63,-5.6335,-5.6343,-5.6392,-5.6464,-5.6506,-5.659,-5.6658,-5.672,-5.6744,-5.6724,-5.6724,-5.6743,-5.6742,-5.6736,-5.6738,-5.6511,-5.6717,-5.6716,-5.6715,-5.6714,-5.6713,-5.6154,-5.621,-5.6254,-5.6321,-5.6356,-5.64,-5.6455,-5.6476,-5.6536,-5.6604,-5.6603,-5.6681,-5.6725,-5.6807,-5.6836,-5.6898,-5.6872,-5.69,-5.6907,-5.6913,-5.6918,-5.6729,-5.691,-5.6909,-5.6909,-5.6908,-5.6908,0,-5.6322,-5.635,-5.6412,-5.6477,-5.653,-5.651,-5.656,-5.6605,-5.6675,-5.6718,-5.6773,-5.6856,-5.6922,-5.695,-5.7015,-5.7059,-5.7052,-5.7076,-5.7071,-5.7076,-5.6939,-5.6915,-5.7081,-5.7081,-5.7081,-5.7081,-5.7081,-5.7081,-5.6415,-5.6509,-5.6518,-5.663,-5.6657,-5.6734,-5.6765,-5.6805,-5.684,-5.6934,-5.6989,-5.7008,-5.7045,-5.7113,-5.7173,-5.718,-5.7204,-5.7231,-5.7234,-5.7104,-5.7086,-5.7069,-5.7046,-5.7237,-5.7238,-5.7366,-5.7367,-5.7368]},{"header":{"parameterUnit":"m.s-1","parameterCategory":1,"la1":30.2991,"la2":30.254,"lo1":-89.0895,"lo2":-89.0444,"dy":0.0017,"dx":0.0017,"nx":28,"ny":28,"refTime":"2026-03-05T09:00:00:Z","depth":0,"parameterNumber":3,"parameterNumberName":"V-component_of_WINDS"},"data":[0,0,0,0,0,0,0,0,0,0,0,0,0,0,0,0,0,0,0,0,0,0,0,0,0,0,0,0,0,0,0,0,0,0,0,0,0,0,0,0,0,0,0,0,0,0,0,0,0,0,0,0,0,0,0,0,0,0,1.8844,1.8845,0,1.8861,1.8861,1.8861,1.8877,1.8877,1.8877,1.8877,1.8889,1.8889,1.8889,0,0,0,0,0,0,0,0,0,0,0,0,0,1.8822,1.8823,1.8844,1.8845,1.8845,1.8861,1.8861,1.8861,1.8877,1.8877,1.8877,1.8877,1.8888,1.8889,1.8889,0,0,0,0,0,0,0,0,0,0,0,0,0,1.8834,1.8823,1.8844,1.8854,1.8856,1.8861,1.8861,1.8862,1.8876,1.8877,1.8877,1.8877,1.8888,1.8889,1.8889,1.8884,0,0,1.8889,1.8889,0,0,0,0,0,0,0,0,1.8834,1.8835,1.8853,1.8854,1.8855,1.8867,1.8858,1.8869,1.8876,1.8868,1.8877,1.8878,1.8881,1.8882,1.8884,1.8884,1.8885,1.8889,1.8889,1.889,1.889,0,0,0,0,0,0,0,1.8833,1.8835,1.8851,1.8853,1.8854,1.8857,1.8859,1.886,1.8872,1.8869,1.887,1.8872,1.8881,1.8884,1.8884,1.8885,1.8889,1.8889,1.889,1.889,1.8885,1.8885,0,0,0,0,0,0,1.8831,1.8834,1.885,1.8851,1.8845,1.8857,1.886,1.8863,1.8873,1.8874,1.8872,1.8873,1.8883,1.8884,1.8885,1.8882,1.889,1.889,1.889,1.8885,1.8885,1.8885,0,0,0,0,0,0,1.8831,1.8832,1.885,1.8843,1.8845,1.8857,1.8861,1.8863,1.8865,1.8875,1.8877,1.8872,1.8884,1.8884,1.8885,1.8882,1.889,1.889,1.8886,1.8885,1.8885,1.8874,0,0,0,0,0,0,1.883,1.8832,1.8831,1.8843,1.8846,1.8851,1.8861,1.8863,1.8866,1.8868,1.8876,1.8877,1.8884,1.8885,1.8885,1.8883,1.889,1.8886,1.8886,1.8885,1.8875,1.8873,1.8872,0,0,0,0,0,1.8829,1.8825,1.8831,1.8833,1.8845,1.885,1.8852,1.8861,1.8866,1.8865,1.8871,1.8877,1.8883,1.8885,1.8885,1.8883,1.8886,1.8886,1.8885,1.8875,1.8874,1.8872,0,0,0,0,0,0,1.881,1.8827,1.8833,1.8833,1.8841,1.8853,1.8851,1.8859,1.8863,1.8864,1.8874,1.8875,1.8875,1.8879,1.8881,1.888,1.8885,1.8885,1.8877,1.8876,1.8875,1.8874,1.889,0,0,0,0,0,1.8806,1.8811,1.8825,1.8823,1.8827,1.8839,1.8841,1.8849,1.8856,1.8858,1.8864,1.887,1.8873,1.8875,1.8878,1.8876,1.8878,1.8874,1.8873,1.8872,1.8871,1.8873,1.8871,1.8883,1.8883,1.8883,0,0,1.8797,1.8807,1.8809,1.882,1.8826,1.883,1.8841,1.8844,1.8847,1.8858,1.886,1.8865,1.8871,1.8871,1.8872,1.8874,1.8869,1.8871,1.887,1.887,1.8872,1.8871,1.887,1.8883,1.8883,1.8883,0,0,1.8784,1.8791,1.8793,1.88,1.8811,1.8819,1.882,1.8832,1.8836,1.8839,1.8848,1.8851,1.8856,1.8861,1.8864,1.8857,1.8862,1.8857,1.8851,1.8852,1.8851,1.885,1.8848,1.8848,1.8857,1.8857,1.8857,0,1.8771,1.8779,1.8792,1.8796,1.8801,1.8814,1.8815,1.8821,1.8831,1.8834,1.8838,1.8847,1.8851,1.8854,1.8853,1.8854,1.8855,1.8856,1.885,1.885,1.8849,1.8848,1.8847,1.8856,1.8856,1.8856,1.8856,0,1.8763,1.8769,1.8768,1.8781,1.8786,1.8788,1.8801,1.8805,1.8812,1.882,1.8823,1.8831,1.8837,1.8838,1.8844,1.8842,1.8844,1.8849,1.8854,1.8847,1.8846,1.8845,1.8855,1.8856,1.8856,1.8856,0,0,1.8736,1.8759,1.8759,1.8766,1.8781,1.8784,1.8788,1.8797,1.88,1.8807,1.881,1.8816,1.8822,1.8825,1.8832,1.8833,1.8829,1.8838,1.8839,1.8837,1.8829,1.8826,1.8825,1.8833,1.8833,1.8833,1.8829,0,1.8725,1.8734,1.8748,1.8752,1.8758,1.8772,1.8775,1.8784,1.8792,1.8797,1.8805,1.881,1.8817,1.8819,1.8821,1.8829,1.8827,1.8829,1.8836,1.8836,1.8834,1.8824,1.882,1.8815,1.8828,1.8828,1.8828,0,1.8713,1.8724,1.8729,1.8747,1.8749,1.8752,1.8763,1.8768,1.8779,1.8785,1.8791,1.8799,1.8803,1.8809,1.8815,1.8817,1.882,1.8825,1.8825,1.8826,1.8831,1.8825,1.8814,1.8814,1.8827,1.8827,1.8827,0,1.8695,1.8709,1.8716,1.8721,1.8741,1.8743,1.8751,1.8762,1.8767,1.8776,1.878,1.8788,1.8792,1.8798,1.8809,1.8812,1.8814,1.882,1.8819,1.8819,1.8818,1.8818,1.8808,1.882,1.882,1.882,1.882,0,1.8682,1.8685,1.8708,1.8712,1.8716,1.8732,1.8735,1.8744,1.8755,1.876,1.8772,1.8776,1.879,1.8796,1.8804,1.8809,1.881,1.8815,1.8817,1.8814,1.8813,1.8816,1.8817,1.882,1.882,1.882,1.882,0,1.8661,1.8677,1.8685,1.8704,1.8709,1.8712,1.8727,1.8731,1.8742,1.8748,1.8751,1.8766,1.8774,1.8785,1.8795,1.8801,1.8805,1.8808,1.8802,1.8803,1.8802,1.8802,1.8794,1.8794,1.8805,1.8805,1.8805,0,1.8652,1.8656,1.8677,1.8683,1.8691,1.8699,1.8706,1.8722,1.8728,1.8743,1.8745,1.8754,1.8763,1.8775,1.8786,1.8795,1.8798,1.8795,1.8799,1.8797,1.8799,1.8799,1.88,1.8793,1.8793,1.8793,1.8793,0,1.8635,1.8643,1.8654,1.8667,1.8676,1.8687,1.8698,1.8701,1.8719,1.8726,1.8736,1.8743,1.8756,1.8765,1.8776,1.8783,1.8791,1.8792,1.8792,1.8789,1.8786,1.8789,1.88,1.8792,1.8792,1.8792,1.8792,1.8792,1.862,1.8625,1.8642,1.8653,1.8664,1.8675,1.8681,1.8694,1.8703,1.8716,1.8725,1.8735,1.8747,1.8763,1.877,1.8777,1.878,1.8781,1.8781,1.8781,1.878,1.8785,1.8779,1.8779,1.8779,1.8779,1.8779,0,1.8605,1.8617,1.8628,1.8645,1.8655,1.8665,1.8678,1.8685,1.8694,1.8707,1.8716,1.8728,1.8738,1.8752,1.8763,1.8766,1.877,1.8768,1.8768,1.877,1.8776,1.8775,1.8765,1.8765,1.8765,1.8765,1.8765,1.8765,1.8598,1.8607,1.8618,1.8633,1.8645,1.8657,1.8664,1.8675,1.8685,1.8699,1.8709,1.8718,1.8731,1.8744,1.8754,1.8757,1.8761,1.8758,1.8763,1.8768,1.8769,1.8771,1.877,1.8759,1.8759,1.8756,1.8756,1.8756]}]]